Theta_e
310 310 310 310 310 309 309 309 310 310 309 309 308 304 302 303 305 314 317 314 310 309 308 311 311 312 312 315 318 323 328 328 327 327 327 326 326 326 327 327 326 327 327 326 324
309 309 309 310 310 309 309 310 310 310 309 309 307 302 301 303 313 317 316 307 308 310 312 311 311 312 314 315 317 322 325 326 326 326 327 327 327 326 327 328 327 326 326 324 323
309 309 309 309 309 309 309 310 310 310 310 308 304 301 303 308 319 314 310 309 310 311 308 309 312 312 313 315 316 319 322 323 323 324 326 327 327 325 326 327 327 327 324 323 323
308 308 308 309 308 308 308 309 310 310 310 306 301 301 303 314 318 316 310 310 310 314 314 312 313 313 312 314 315 316 318 319 320 322 322 323 323 324 324 326 324 322 321 321 322
307 308 308 308 308 308 307 308 309 309 309 305 301 304 312 313 315 316 311 310 315 313 314 314 313 313 313 312 314 314 315 316 317 319 319 319 319 320 319 321 317 317 319 320 321
305 305 305 306 308 308 308 308 308 309 308 305 303 306 314 309 312 315 318 316 314 314 313 314 313 313 313 313 313 314 314 315 315 316 316 316 316 317 317 317 318 318 318 319 319
306 306 305 306 306 308 308 308 309 308 307 305 308 312 314 309 311 313 317 315 313 313 312 312 312 313 313 313 313 313 313 314 314 314 315 315 316 316 316 315 315 318 318 318 318
306 305 305 306 308 308 309 309 308 304 302 304 310 313 312 308 310 313 314 314 313 312 312 311 311 312 313 313 313 313 313 313 313 313 313 313 315 314 314 314 315 315 316 317 318
304 305 306 307 307 307 308 309 307 302 301 306 315 315 314 313 313 312 313 311 310 310 311 310 311 313 313 313 314 315 313 313 314 314 314 314 314 315 314 314 314 314 316 316 316
305 305 306 306 306 307 311 313 310 310 312 314 314 317 315 314 314 313 311 311 311 311 311 312 313 314 313 314 314 315 314 313 314 314 314 314 314 315 314 314 314 314 314 315 316
306 306 306 307 306 308 312 313 316 317 316 315 313 314 314 313 313 312 311 310 311 311 312 312 312 313 313 314 313 312 313 313 313 313 314 314 314 315 315 315 315 315 315 315 315
306 306 307 306 307 309 311 314 313 312 316 314 312 313 312 313 313 313 311 311 312 312 312 312 312 312 312 311 312 312 313 313 313 313 313 313 314 313 314 314 314 315 316 315 315
306 308 307 305 308 311 313 312 311 311 316 313 312 313 313 313 313 313 312 312 312 312 312 312 312 311 311 311 311 312 313 313 313 312 312 313 314 313 313 313 313 314 315 314 314
308 309 305 308 311 312 314 311 311 311 318 314 313 313 313 313 313 312 312 312 312 312 312 312 311 311 311 311 312 313 312 311 311 312 313 312 312 313 313 313 313 313 314 314 314
308 307 306 310 314 314 312 311 311 312 322 314 312 312 312 312 312 312 312 312 312 312 311 312 311 311 312 312 311 311 311 312 312 312 313 313 313 313 312 312 313 313 313 315 316
310 307 310 313 313 312 312 311 314 322 320 313 312 312 313 312 312 312 312 312 312 312 312 312 312 311 312 312 311 312 312 313 314 313 312 313 312 312 314 313 313 313 313 314 316
311 308 309 311 314 313 312 315 322 320 313 314 313 312 313 313 314 313 314 314 314 314 315 314 312 312 311 312 313 312 314 315 313 315 312 314 313 313 314 313 313 313 313 314 317
309 313 313 312 312 312 313 318 321 316 314 312 313 313 314 314 314 314 314 315 315 314 315 315 315 312 312 312 313 314 314 315 314 313 313 313 313 316 313 313 313 313 314 315 316
309 314 315 312 311 311 317 319 318 316 314 314 313 314 314 314 313 312 313 313 314 314 315 315 315 312 312 312 312 313 314 313 314 314 314 314 313 313 314 314 313 313 313 315 316
311 314 315 309 310 314 317 316 316 313 312 313 314 313 314 313 312 312 312 313 313 314 314 314 316 314 313 312 312 313 313 316 315 315 314 313 314 314 315 314 314 313 314 315 315
313 316 313 308 311 316 319 315 315 313 312 313 313 313 313 312 312 313 312 312 312 312 313 313 314 314 314 314 314 315 314 313 314 315 317 316 314 316 315 315 314 314 314 314 314
311 314 312 309 314 313 314 313 308 310 311 312 312 313 313 313 313 313 312 312 311 312 312 313 313 314 313 312 312 312 313 313 317 317 318 318 318 315 315 314 314 315 315 315 315
309 312 310 309 314 310 310 309 309 310 311 312 312 312 312 313 313 312 312 311 311 312 313 314 315 316 312 313 312 313 312 313 314 316 320 322 317 315 314 315 315 315 315 315 315
308 309 308 309 308 308 308 308 310 310 310 310 311 311 312 312 312 312 311 311 310 311 310 312 315 315 315 312 313 314 312 313 314 320 318 317 316 316 315 316 315 316 315 315 315
306 308 307 306 306 307 308 308 308 309 309 309 311 310 311 310 310 310 310 310 310 309 310 313 315 313 313 312 312 312 313 313 314 316 318 316 316 315 316 316 316 316 316 315 315
307 304 305 306 306 307 306 308 307 307 307 307 307 309 310 310 309 310 309 309 310 309 312 314 315 313 314 312 312 314 314 314 314 315 315 315 316 315 316 315 315 314 315 315 313
302 303 306 304 304 305 305 305 305 305 305 306 308 308 307 307 307 308 308 309 309 310 311 314 314 314 313 310 314 316 315 315 315 315 315 316 315 315 315 315 314 315 314 314 313
Wind_Speed
19 19 19 19 18 17 16 16 15 14 13 13 13 12 13 16 17 10 9 4 4 5 3 5 6 8 9 12 13 13 12 17 23 21 15 13 14 14 8 11 13 8 10 13 18
20 20 20 19 19 18 17 16 15 15 13 13 12 12 13 16 14 9 5 5 5 4 5 8 9 10 11 13 9 14 15 24 20 18 11 16 17 11 9 16 16 15 12 11 20
21 21 21 20 20 19 18 16 16 15 14 12 11 10 12 11 8 6 4 6 5 3 2 4 5 10 14 11 16 13 21 18 20 13 12 15 10 10 13 19 18 17 13 17 18
21 22 22 22 20 20 19 17 16 15 13 10 9 8 9 5 1 5 6 6 5 4 3 5 7 11 12 12 15 14 14 18 12 14 12 17 13 12 16 19 11 18 17 19 16
23 23 22 22 21 20 19 18 17 14 12 10 6 6 4 6 2 4 7 6 4 3 3 3 5 5 11 11 7 16 15 9 14 14 15 14 18 16 16 4 11 17 16 16 18
22 21 22 21 22 21 20 18 17 14 11 7 4 3 5 7 4 3 8 7 4 4 3 3 1 2 4 8 11 1 11 11 13 15 14 17 19 16 14 10 14 14 15 15 13
23 23 24 22 22 22 20 18 16 12 9 5 4 3 7 4 5 4 8 6 4 4 3 1 3 7 0 5 4 7 12 15 15 16 17 11 20 20 12 7 12 16 15 13 8
24 25 24 22 21 20 20 19 15 9 5 2 2 4 5 2 4 6 7 8 7 6 5 5 5 8 8 0 6 9 8 14 10 7 11 8 15 5 5 2 7 9 9 9 9
24 25 23 21 19 18 14 7 3 4 6 5 2 5 2 2 7 5 7 4 2 4 5 4 7 7 5 11 9 10 12 10 9 6 3 10 9 9 6 4 6 8 11 7 8
25 24 22 18 14 10 5 8 10 9 6 4 5 6 5 4 3 2 4 5 4 3 5 9 7 9 9 9 10 8 9 7 9 8 9 11 13 12 11 11 11 11 11 10 11
25 23 19 13 7 2 3 2 5 6 7 7 3 5 1 1 3 7 6 7 7 7 10 8 10 12 10 6 6 6 8 9 5 4 10 12 13 15 13 15 15 14 13 12 12
26 21 13 4 3 5 2 2 6 5 6 5 7 8 9 4 5 8 7 8 8 10 4 9 13 8 3 6 8 9 10 11 7 6 9 13 17 16 17 15 17 15 14 12 11
23 18 9 2 6 5 4 6 8 3 6 3 2 2 4 8 5 6 10 10 10 8 7 10 5 6 8 9 10 11 11 8 9 10 15 13 19 9 6 7 6 8 7 8 9
21 14 7 7 3 1 2 9 10 4 5 6 5 5 7 4 6 3 8 9 7 9 5 7 6 7 9 9 9 12 5 6 8 10 8 1 5 9 9 6 6 4 3 4 7
18 11 5 2 2 1 7 11 2 4 4 4 5 5 3 7 5 7 5 8 13 9 6 1 8 10 10 7 5 8 2 8 11 13 13 16 7 4 6 7 11 3 2 2 2
12 7 4 2 1 5 10 6 4 5 3 5 3 3 6 8 6 2 6 7 5 13 13 15 8 8 11 6 9 1 10 12 13 10 11 10 6 6 8 7 5 4 5 1 1
8 2 2 2 5 9 8 5 5 5 3 3 4 4 7 9 8 7 9 11 12 12 16 17 15 12 9 11 8 10 10 8 8 8 6 5 5 8 5 2 6 8 7 6 5
7 2 1 1 6 7 5 5 6 2 3 1 6 10 12 6 12 7 11 14 13 14 15 15 11 14 10 13 11 8 8 8 6 7 7 4 6 7 6 4 5 5 7 9 8
5 3 3 3 5 5 6 7 3 1 3 5 11 12 9 7 6 6 13 12 8 5 13 8 15 7 6 5 6 4 10 5 8 15 12 10 7 10 12 6 4 7 6 8 5
5 5 3 10 3 5 5 5 4 2 4 6 10 6 9 6 6 5 6 2 4 5 5 4 12 5 6 4 9 14 5 5 8 7 12 8 10 8 13 1 4 4 4 6 10
2 4 3 8 2 5 5 3 5 4 5 6 8 12 12 12 11 11 5 2 5 5 7 7 9 10 8 12 16 9 13 9 8 10 11 12 5 7 2 6 3 4 7 15 18
4 3 5 6 4 2 4 2 4 9 8 9 7 11 13 11 12 12 9 6 1 7 8 2 5 11 14 13 5 12 13 12 10 10 8 10 15 7 5 2 5 13 13 13 16
5 3 3 5 3 4 3 8 5 8 6 5 6 4 4 10 7 6 7 4 3 6 4 2 6 8 10 9 6 11 16 16 15 13 15 11 11 4 6 13 18 18 15 14 16
4 3 2 3 3 4 6 4 4 2 9 7 9 6 9 11 9 7 6 2 1 3 5 4 12 13 12 12 2 6 10 10 12 10 15 20 27 20 20 19 17 17 16 17 16
4 3 3 5 2 7 4 4 8 5 2 6 5 4 7 8 10 12 10 9 7 9 11 10 17 17 18 18 17 18 19 19 18 21 22 22 27 23 22 22 21 20 18 20 18
5 4 2 5 5 6 1 1 7 5 4 6 10 8 7 12 13 17 15 14 12 9 10 7 6 8 12 15 17 19 21 21 22 22 23 24 26 24 21 16 18 15 18 20 23
3 0 4 1 2 5 2 3 5 8 7 8 8 9 13 12 11 13 12 10 10 9 5 4 4 4 9 6 9 13 18 14 18 20 16 19 20 20 21 20 16 18 21 25 26
Wind_Direction
344 342 340 338 333 327 322 322 321 319 316 315 314 311 310 311 318 289 261 268 237 205 183 238 228 211 214 228 224 233 235 239 240 240 250 226 212 210 239 264 291 301 299 329 326
343 340 337 333 331 327 325 320 317 316 312 311 308 308 310 315 305 256 252 198 127 175 244 228 210 200 211 218 209 217 228 241 244 250 247 236 226 206 215 247 260 285 288 311 324
340 339 335 332 328 324 323 319 316 312 311 307 302 305 312 327 265 89 153 148 144 148 198 219 226 219 228 223 215 223 243 245 245 238 249 259 232 238 215 252 262 289 306 306 310
340 335 332 328 326 323 321 318 315 310 307 295 294 307 317 283 330 102 154 155 146 169 185 164 203 212 224 215 224 246 241 255 260 237 242 242 249 252 258 260 284 290 290 293 293
337 333 329 327 324 323 320 317 313 309 302 293 288 320 324 228 210 122 166 172 180 216 226 171 208 224 228 228 214 238 247 231 244 253 246 253 250 263 272 281 277 285 287 287 289
336 333 330 328 324 322 318 315 312 303 296 293 288 11 268 247 116 141 170 183 225 239 189 232 307 295 261 242 227 248 254 235 234 241 243 254 258 249 252 233 245 256 290 289 295
336 335 330 327 323 322 320 314 306 295 286 271 283 293 256 286 159 132 185 214 227 248 266 256 283 249 186 221 234 246 250 234 234 240 246 265 257 240 253 255 265 270 269 273 269
332 333 330 326 324 324 321 313 297 271 245 213 252 256 270 192 208 232 205 226 229 240 266 269 250 273 253 23 219 239 241 242 196 220 221 224 254 113 156 227 227 265 251 259 263
333 332 330 328 328 328 329 4 12 166 151 157 196 248 166 213 211 181 203 221 182 213 229 241 236 261 202 232 226 206 255 215 152 211 206 222 256 149 207 272 279 264 262 265 277
334 332 332 331 333 343 72 86 78 91 121 182 259 242 226 152 160 202 197 216 253 199 199 207 226 234 222 229 246 223 231 215 250 166 241 248 251 240 244 248 261 272 277 270 273
334 333 333 334 346 58 103 261 213 181 212 289 347 307 212 291 217 197 186 201 216 235 250 199 250 225 242 242 309 275 261 259 240 277 271 260 266 267 257 257 247 252 256 270 265
338 338 341 4 69 87 102 353 43 328 299 222 261 263 260 283 219 202 203 222 209 244 211 231 235 255 236 227 238 242 248 252 277 263 288 277 282 277 263 255 243 240 240 240 255
348 352 356 100 124 72 50 42 337 282 258 154 226 244 185 204 223 209 218 226 239 239 234 273 14 159 221 217 238 234 262 281 281 313 273 276 266 218 206 229 194 206 216 250 268
354 3 20 129 145 206 104 339 331 218 264 137 174 139 175 229 241 219 227 224 222 259 207 255 134 211 225 249 243 264 185 271 277 281 288 53 285 191 202 187 176 144 214 257 255
2 14 71 23 22 304 336 328 309 226 265 123 127 108 169 235 352 158 204 212 249 224 239 236 202 216 243 271 227 284 269 269 286 278 279 252 237 207 186 195 162 61 34 347 142
6 31 73 40 49 347 326 312 223 231 242 166 176 213 244 214 234 261 220 224 285 263 233 263 276 283 284 292 242 306 252 254 252 258 247 232 242 214 175 215 152 302 310 261 14
346 45 70 56 346 328 320 225 237 259 101 171 229 240 270 259 245 239 250 230 239 237 240 233 231 241 262 238 207 236 257 272 238 203 244 98 259 269 138 177 290 310 302 250 221
321 267 274 305 320 322 274 231 255 55 258 48 279 279 264 277 250 270 263 257 220 264 266 270 240 207 194 234 286 236 296 282 281 278 297 203 249 128 103 286 284 266 282 264 259
319 246 230 324 310 302 250 241 295 328 348 295 292 264 253 223 275 265 266 274 287 240 258 271 254 137 207 222 275 250 237 326 298 263 259 249 223 227 206 203 201 273 310 273 258
325 247 190 332 295 241 246 270 282 243 300 264 280 265 275 244 262 248 286 100 244 252 286 296 275 214 160 241 257 262 329 229 213 263 258 247 255 252 188 293 332 299 297 308 299
274 249 65 341 238 235 256 301 287 269 286 270 276 270 276 280 280 284 274 240 239 235 278 293 255 257 226 221 242 213 230 229 299 278 273 284 275 73 323 298 315 289 305 304 295
315 264 9 336 242 238 270 338 6 277 260 269 275 273 281 287 282 277 270 268 48 284 258 251 294 270 268 275 260 282 271 229 236 228 234 277 277 353 308 296 272 286 309 307 303
340 314 1 320 302 317 316 280 268 283 273 285 278 262 306 286 289 267 290 47 290 254 333 347 237 267 239 188 218 238 234 241 254 262 257 257 250 155 219 257 302 302 291 301 303
306 312 119 57 30 327 335 292 272 267 283 293 285 275 277 268 255 275 267 192 265 280 17 323 265 263 273 310 247 245 255 250 250 248 251 250 275 276 288 295 301 290 293 306 296
352 47 18 315 16 331 309 305 300 303 277 284 223 283 300 290 281 267 263 272 239 252 266 249 261 268 267 274 278 274 270 265 246 242 250 266 273 287 294 300 299 296 296 290 290
335 337 186 292 291 291 68 301 310 316 282 277 280 312 293 282 290 293 296 294 287 267 255 234 263 282 285 266 258 263 262 260 256 255 258 268 273 275 278 312 299 298 291 295 295
9 279 282 111 269 292 355 343 316 311 277 268 289 302 293 298 307 294 287 275 263 271 271 328 268 329 283 296 298 270 261 263 257 249 254 271 290 313 301 311 320 305 301 294 292